1507381200.47,18309,12.88,73364.5,0.51,-1.47,-1.43,0,*4E
1507381201.7,18310,12.88,73360.8,0.51,-1.59,-1.47,0,*4D
1507381202.96,18311,12.88,73364.0,0.51,-1.43,-1.43,0,*43
1507381204.18,18312,12.88,73362.8,0.53,-1.43,-1.43,0,*42
1507381205.42,18313,12.88,73362.8,0.53,-1.47,-1.47,0,*43
1507381206.65,18314,12.88,73362.8,0.53,-1.47,-1.43,0,*40
1507381207.91,18315,12.88,73362.0,0.51,-1.43,-1.35,0,*46
1507381209.11,18316,12.88,73366.3,0.53,-1.43,-1.33,0,*41
1507381210.37,18317,12.88,73360.8,0.51,-1.43,-1.35,0,*44
1507381211.59,18318,12.88,73360.5,0.53,-1.43,-1.35,0,*49
1507381212.82,18319,12.88,73360.0,0.51,-1.43,-1.33,0,*4C
1507381214.03,18320,12.88,73364.5,0.53,-1.43,-1.33,0,*44
1507381215.23,18321,12.88,73362.0,0.53,-1.43,-1.33,0,*45
1507381216.42,18322,12.81,73356.0,0.53,-1.35,-1.33,0,*47
1507381217.62,18323,12.88,73364.0,0.53,-1.35,-1.33,0,*46
1507381218.83,18324,12.88,73364.5,0.51,-1.33,-1.25,0,*42
1507381220.06,18325,12.88,73362.3,0.51,-1.35,-1.33,0,*42
1507381221.31,18326,12.88,73362.8,0.51,-1.35,-1.35,0,*47
1507381222.54,18327,12.88,73360.3,0.53,-1.35,-1.35,0,*44
1507381223.77,18328,12.88,73362.8,0.53,-1.43,-1.43,0,*4B
1507381224.97,18329,12.88,73362.8,0.53,-1.43,-1.33,0,*4D
1507381226.2,18330,12.88,73360.5,0.53,-1.35,-1.35,0,*42
1507381227.42,18331,12.88,73360.0,0.53,-1.35,-1.35,0,*43
1507381228.62,18332,12.88,73362.3,0.53,-1.35,-1.33,0,*46
1507381229.85,18333,12.88,73360.5,0.51,-1.43,-1.33,0,*44
1507381231.05,18334,12.88,73362.0,0.53,-1.43,-1.33,0,*41
1507381232.28,18335,12.88,73360.0,0.51,-1.35,-1.33,0,*43
1507381233.51,18336,12.88,73362.3,0.53,-1.35,-1.43,0,*45
1507381234.71,18337,12.88,73360.5,0.53,-1.43,-1.33,0,*42
1507381235.91,18338,12.88,73362.0,0.53,-1.43,-1.33,0,*4D
1507381237.14,18339,12.88,73362.3,0.53,-1.47,-1.35,0,*4E
1507381238.37,18340,12.88,73362.3,0.51,-1.43,-1.33,0,*40
1507381239.6,18341,12.88,73358.5,0.51,-1.43,-1.33,0,*41
1507381240.83,18342,12.88,73360.3,0.53,-1.43,-1.35,0,*46
1507381242.0,18343,12.88,73356.0,0.53,-1.33,-1.33,0,*46
1507381243.2,18344,12.88,73362.5,0.53,-1.35,-1.33,0,*47
1507381244.41,18345,12.88,73364.0,0.55,-1.29,-1.21,0,*4E
1507381245.64,18346,12.88,73360.3,0.55,-1.39,-1.33,0,*4F
1507381246.85,18347,12.88,73360.8,0.55,-1.33,-1.33,0,*44
1507381248.05,18348,12.88,73360.8,0.55,-1.29,-1.29,0,*4B
1507381249.25,18349,12.88,73360.5,0.53,-1.35,-1.25,0,*4D
1507381250.43,18350,12.88,73362.8,0.53,-1.33,-1.33,0,*44
1507381251.63,18351,12.88,73360.0,0.53,-1.25,-1.35,0,*44
1507381252.83,18352,12.88,73360.0,0.53,-1.35,-1.33,0,*40
1507381254.04,18353,12.88,73360.0,0.55,-1.33,-1.29,0,*4A
1507381255.24,18354,12.88,73360.3,0.55,-1.29,-1.29,0,*46
1507381256.45,18355,12.88,73360.0,0.55,-1.29,-1.29,0,*47
1507381257.68,18356,12.88,73362.5,0.53,-1.35,-1.35,0,*42
1507381258.87,18357,12.88,73358.8,0.53,-1.35,-1.33,0,*45
1507381260.07,18358,12.88,73360.8,0.53,-1.35,-1.25,0,*4D
1507381261.25,18359,12.88,73360.8,0.53,-1.33,-1.25,0,*4A
1507381262.42,18360,12.88,73360.8,0.53,-1.25,-1.25,0,*47
1507381263.6,18361,12.88,73360.0,0.53,-1.33,-1.25,0,*41
1507381264.78,18362,12.88,73360.5,0.53,-1.33,-1.21,0,*46
1507381265.98,18363,12.88,73362.5,0.53,-1.35,-1.25,0,*45
1507381267.18,18364,12.88,73360.3,0.55,-1.21,-1.17,0,*40
1507381268.41,18365,12.88,73362.0,0.55,-1.21,-1.09,0,*4E
1507381269.62,18366,12.88,73360.5,0.55,-1.17,-1.17,0,*47
1507381270.83,18367,12.88,73358.3,0.55,-1.21,-1.17,0,*43
1507381272.04,18368,12.88,73364.8,0.55,-1.21,-1.17,0,*4C
1507381273.24,18369,12.88,73360.8,0.55,-1.17,-1.17,0,*48
1507381274.43,18370,12.88,73360.5,0.57,-1.21,-1.21,0,*42
1507381275.64,18371,12.88,73358.5,0.55,-1.21,-1.21,0,*41
1507381276.84,18372,12.88,73360.3,0.55,-1.21,-1.17,0,*47
1507381278.05,18373,12.88,73362.0,0.55,-1.21,-1.17,0,*46
1507381279.23,18374,12.88,73358.8,0.57,-1.21,-1.17,0,*43
1507381280.43,18375,12.88,73362.0,0.57,-1.21,-1.09,0,*4D
1507381281.62,18376,12.88,73360.0,0.57,-1.17,-1.17,0,*44
1507381282.84,18377,12.88,73360.0,0.55,-1.21,-1.09,0,*4D
1507381284.08,18378,12.88,73356.5,0.55,-1.17,-1.09,0,*47
1507381285.28,18379,12.88,73362.5,0.57,-1.17,-1.09,0,*44
1507381286.49,18380,12.88,73356.3,0.57,-1.17,-1.05,0,*4E
1507381287.74,18381,12.88,73360.5,0.55,-1.09,-1.05,0,*42
1507381288.95,18382,12.88,73356.5,0.57,-1.17,-1.09,0,*40
1507381290.15,18383,12.88,73358.5,0.57,-1.17,-1.09,0,*41
1507381291.35,18384,12.88,73358.0,0.57,-1.17,-1.09,0,*46
1507381292.58,18385,12.88,73358.5,0.57,-1.09,-1.09,0,*48
1507381293.81,18386,12.88,73360.0,0.59,-1.17,-1.05,0,*46
1507381295.05,18387,12.81,73358.8,0.59,-1.17,-1.05,0,*47
1507381296.27,18388,12.88,73358.8,0.59,-1.17,-1.13,0,*4F
1507381297.45,18389,12.88,73362.5,0.57,-1.21,-1.17,0,*41
1507381298.63,18390,12.88,73362.3,0.57,-1.21,-1.17,0,*49
1507381299.88,18391,12.88,73358.3,0.59,-1.13,-1.13,0,*43
1507381301.11,18392,12.88,73362.5,0.59,-1.17,-1.13,0,*44
1507381302.29,18393,12.88,73362.5,0.57,-1.21,-1.21,0,*4F
1507381303.52,18394,12.88,73358.0,0.59,-1.17,-1.13,0,*42
1507381304.75,18395,12.88,73360.8,0.59,-1.17,-1.13,0,*43
1507381305.98,18396,12.88,73360.3,0.59,-1.17,-1.13,0,*40
1507381307.19,18397,12.88,73362.8,0.59,-1.17,-1.17,0,*45
1507381308.44,18398,12.88,73358.5,0.59,-1.13,-1.13,0,*4A
1507381309.64,18399,12.88,73360.8,0.59,-1.25,-1.17,0,*4A
1507381310.87,18400,12.88,73362.3,0.59,-1.17,-1.13,0,*48
1507381312.07,18401,12.88,73362.3,0.59,-1.25,-1.17,0,*4C
1507381313.28,18402,12.88,73360.8,0.59,-1.29,-1.17,0,*43
1507381314.48,18403,12.88,73362.8,0.59,-1.29,-1.17,0,*42
1507381315.69,18404,12.88,73358.3,0.59,-1.25,-1.17,0,*49
1507381316.87,18405,12.88,73360.0,0.57,-1.33,-1.21,0,*44
1507381318.05,18406,12.88,73360.3,0.57,-1.29,-1.21,0,*4C
1507381319.23,18407,12.81,73356.0,0.57,-1.29,-1.29,0,*45
1507381320.43,18408,12.81,73356.5,0.59,-1.29,-1.25,0,*48
1507381321.62,18409,12.88,73358.3,0.61,-1.21,-1.21,0,*4E
1507381322.82,18410,12.88,73362.0,0.59,-1.29,-1.29,0,*4D
1507381324.0,18411,12.88,73362.5,0.57,-1.29,-1.29,0,*42
1507381325.21,18412,12.88,73360.0,0.59,-1.29,-1.25,0,*43
1507381326.4,18413,12.88,73364.0,0.59,-1.25,-1.25,0,*4E
1507381327.63,18414,12.81,73356.5,0.59,-1.35,-1.25,0,*48
1507381328.83,18415,12.88,73362.8,0.59,-1.29,-1.29,0,*48
1507381330.04,18416,12.81,73356.0,0.59,-1.29,-1.25,0,*47
1507381331.24,18417,12.88,73362.0,0.59,-1.29,-1.25,0,*46
1507381332.44,18418,12.88,73362.3,0.59,-1.29,-1.29,0,*45
1507381333.62,18419,12.88,73366.0,0.57,-1.33,-1.29,0,*41
1507381334.8,18420,12.88,73362.0,0.57,-1.29,-1.29,0,*40
1507381335.98,18421,12.88,73358.3,0.57,-1.33,-1.33,0,*41
1507381337.16,18422,12.88,73362.5,0.57,-1.33,-1.29,0,*49
1507381338.34,18423,12.88,73358.8,0.57,-1.33,-1.29,0,*48
1507381339.52,18424,12.88,73360.8,0.57,-1.33,-1.29,0,*4F
1507381340.7,18425,12.88,73360.8,0.57,-1.33,-1.29,0,*4E
1507381341.88,18426,12.88,73360.8,0.57,-1.33,-1.29,0,*4D
1507381343.05,18427,12.88,73362.0,0.57,-1.33,-1.33,0,*47
1507381344.23,18428,12.81,73356.8,0.57,-1.33,-1.29,0,*43
1507381345.41,18429,12.88,73362.3,0.57,-1.33,-1.33,0,*49
1507381346.59,18430,12.88,73358.8,0.57,-1.33,-1.29,0,*4A
1507381347.77,18431,12.88,73360.0,0.57,-1.33,-1.29,0,*4B
1507381348.97,18432,12.88,73360.3,0.59,-1.29,-1.29,0,*4D
1507381350.18,18433,12.81,73356.0,0.59,-1.29,-1.29,0,*4C
1507381351.38,18434,12.81,73356.5,0.57,-1.39,-1.33,0,*4F
1507381352.59,18435,12.88,73360.3,0.59,-1.29,-1.25,0,*46
1507381353.79,18436,12.81,73358.0,0.59,-1.29,-1.25,0,*45
1507381354.97,18437,12.88,73362.0,0.57,-1.33,-1.29,0,*4D
1507381356.15,18438,12.88,73360.0,0.57,-1.33,-1.29,0,*42
1507381357.33,18439,12.81,73356.8,0.57,-1.29,-1.29,0,*48
1507381358.5,18440,12.88,73360.8,0.57,-1.29,-1.29,0,*46
1507381359.69,18441,12.88,73362.3,0.57,-1.33,-1.21,0,*44
1507381360.87,18442,12.88,73362.5,0.57,-1.29,-1.29,0,*44
1507381362.05,18443,12.81,73358.5,0.57,-1.33,-1.21,0,*46
1507381363.23,18444,12.88,73360.3,0.57,-1.29,-1.33,0,*49
1507381364.41,18445,12.88,73364.8,0.57,-1.33,-1.21,0,*40
1507381365.59,18446,12.88,73360.5,0.57,-1.33,-1.29,0,*4B
1507381366.77,18447,12.81,73358.8,0.57,-1.33,-1.29,0,*4A
1507381367.95,18448,12.81,73356.0,0.57,-1.33,-1.29,0,*45
1507381369.12,18449,12.81,73356.5,0.57,-1.29,-1.29,0,*4F
1507381370.3,18450,12.88,73358.8,0.57,-1.33,-1.29,0,*4C
1507381371.51,18451,12.88,73362.3,0.57,-1.43,-1.29,0,*4A
1507381372.73,18452,12.88,73362.0,0.55,-1.43,-1.33,0,*40
1507381373.94,18453,12.88,73360.8,0.57,-1.39,-1.33,0,*4E
1507381375.14,18454,12.81,73356.8,0.57,-1.39,-1.33,0,*49
1507381376.32,18455,12.88,73362.5,0.57,-1.33,-1.29,0,*49
1507381377.5,18456,12.88,73362.8,0.57,-1.33,-1.33,0,*41
1507381378.68,18457,12.88,73360.0,0.57,-1.33,-1.29,0,*4B
1507381379.86,18458,12.88,73360.5,0.57,-1.33,-1.21,0,*4C
1507381381.09,18459,12.88,73366.0,0.55,-1.39,-1.33,0,*46
1507381382.32,18460,12.88,73360.8,0.55,-1.39,-1.29,0,*47
1507381383.53,18461,12.88,73360.5,0.57,-1.39,-1.33,0,*4F
1507381384.76,18462,12.88,73360.8,0.55,-1.39,-1.33,0,*4E
1507381385.99,18463,12.88,73362.5,0.55,-1.39,-1.33,0,*4F
1507381387.17,18464,12.88,73362.5,0.57,-1.33,-1.29,0,*4B
1507381388.37,18465,12.81,73356.3,0.55,-1.33,-1.33,0,*43
1507381389.58,18466,12.88,73362.3,0.57,-1.39,-1.29,0,*43
1507381390.75,18467,12.88,73360.0,0.57,-1.33,-1.33,0,*43
1507381391.96,18468,12.88,73362.0,0.55,-1.33,-1.33,0,*4E
1507381393.14,18469,12.88,73362.5,0.57,-1.33,-1.29,0,*46
1507381394.34,18470,12.88,73362.5,0.57,-1.39,-1.33,0,*4F
1507381395.57,18471,12.88,73362.0,0.55,-1.39,-1.33,0,*4C
1507381396.8,18472,12.88,73362.5,0.55,-1.39,-1.33,0,*4F
1507381398.03,18473,12.88,73362.8,0.55,-1.39,-1.33,0,*4E
1507381399.24,18474,12.81,73360.0,0.57,-1.43,-1.29,0,*4D
1507381400.46,18475,12.88,73360.8,0.55,-1.43,-1.33,0,*45
1507381401.7,18476,12.88,73360.5,0.55,-1.39,-1.29,0,*40
1507381402.92,18477,12.81,73360.5,0.55,-1.43,-1.33,0,*47
1507381404.13,18478,12.81,73360.0,0.55,-1.33,-1.33,0,*4F
1507381405.36,18479,12.88,73358.8,0.55,-1.39,-1.33,0,*44
1507381406.59,18480,12.81,73358.0,0.55,-1.39,-1.33,0,*42
1507381407.82,18481,12.88,73360.3,0.55,-1.39,-1.29,0,*48
1507381409.06,18482,12.81,73362.3,0.55,-1.39,-1.29,0,*4B
1507381410.25,18483,12.88,73364.5,0.57,-1.43,-1.33,0,*4E
1507381411.49,18484,12.88,73362.0,0.55,-1.39,-1.33,0,*46
1507381412.69,18485,12.81,73356.5,0.55,-1.33,-1.33,0,*4D
1507381413.89,18486,12.88,73362.0,0.57,-1.39,-1.33,0,*46
1507381415.13,18487,12.88,73360.8,0.55,-1.39,-1.33,0,*45
1507381416.33,18488,12.88,73362.0,0.55,-1.33,-1.33,0,*40
1507381417.56,18489,12.88,73360.8,0.55,-1.39,-1.33,0,*4B
1507381418.74,18490,12.81,73360.8,0.57,-1.33,-1.29,0,*40
1507381419.97,18491,12.81,73362.3,0.55,-1.39,-1.33,0,*42
1507381421.18,18492,12.81,73360.3,0.55,-1.33,-1.29,0,*40
1507381422.38,18493,12.88,73360.3,0.55,-1.33,-1.29,0,*41
1507381423.61,18494,12.88,73362.5,0.55,-1.39,-1.33,0,*47
1507381424.84,18495,12.81,73356.8,0.55,-1.43,-1.33,0,*4B
1507381426.05,18496,12.88,73360.3,0.55,-1.33,-1.29,0,*44
1507381427.25,18497,12.81,73362.5,0.55,-1.33,-1.33,0,*4E
1507381428.48,18498,12.88,73362.5,0.55,-1.39,-1.33,0,*4B
1507381429.69,18499,12.81,73358.5,0.55,-1.33,-1.33,0,*40
1507381430.89,18500,12.88,73360.8,0.55,-1.33,-1.29,0,*4A
1507381432.1,18501,12.81,73358.3,0.55,-1.33,-1.33,0,*40
1507381433.3,18502,12.88,73358.8,0.57,-1.39,-1.33,0,*4B
1507381434.53,18503,12.88,73360.8,0.55,-1.39,-1.33,0,*48
1507381435.74,18504,12.81,73358.8,0.55,-1.33,-1.29,0,*4E
1507381436.97,18505,12.81,73356.0,0.55,-1.33,-1.39,0,*4E
1507381438.21,18506,12.88,73362.0,0.55,-1.39,-1.33,0,*4D
1507381439.38,18507,12.81,73358.5,0.57,-1.33,-1.29,0,*4F
1507381440.58,18508,12.88,73362.5,0.53,-1.35,-1.33,0,*49
1507381441.79,18509,12.88,73362.0,0.55,-1.33,-1.33,0,*48
1507381442.99,18510,12.88,73360.0,0.55,-1.33,-1.33,0,*40
1507381444.17,18511,12.81,73360.3,0.53,-1.33,-1.33,0,*47
1507381445.38,18512,12.88,73362.0,0.55,-1.29,-1.21,0,*4A
1507381446.56,18513,12.81,73358.5,0.53,-1.33,-1.17,0,*43
1507381447.76,18514,12.81,73356.3,0.55,-1.29,-1.17,0,*49
1507381448.94,18515,12.88,73358.8,0.57,-1.21,-1.17,0,*42
1507381450.15,18516,12.81,73356.0,0.55,-1.29,-1.21,0,*4E
1507381451.36,18517,12.88,73360.5,0.55,-1.17,-1.17,0,*47
1507381452.57,18518,12.81,73358.8,0.55,-1.21,-1.21,0,*48
1507381453.78,18519,12.81,73356.3,0.55,-1.21,-1.17,0,*4C
1507381454.96,18520,12.81,73358.3,0.57,-1.21,-1.17,0,*44
1507381456.17,18521,12.88,73356.8,0.55,-1.29,-1.17,0,*4F
1507381457.38,18522,12.88,73356.0,0.55,-1.21,-1.21,0,*41
1507381458.55,18523,12.88,73358.3,0.57,-1.29,-1.29,0,*42
1507381459.76,18524,12.81,73358.8,0.55,-1.21,-1.21,0,*47
1507381460.98,18525,12.88,73356.8,0.55,-1.21,-1.21,0,*46
1507381462.18,18526,12.88,73356.0,0.55,-1.33,-1.29,0,*4E
1507381463.36,18527,12.81,73354.0,0.57,-1.29,-1.21,0,*4E
1507381464.57,18528,12.88,73358.0,0.55,-1.33,-1.21,0,*48
1507381465.75,18529,12.88,73358.0,0.53,-1.25,-1.25,0,*4C
1507381466.96,18530,12.88,73358.5,0.55,-1.33,-1.21,0,*41
1507381468.17,18531,12.88,73356.5,0.55,-1.29,-1.21,0,*4B
1507381469.38,18532,12.81,73354.5,0.55,-1.29,-1.21,0,*48
1507381470.56,18533,12.88,73356.0,0.57,-1.29,-1.21,0,*4B
1507381471.74,18534,12.81,73352.3,0.57,-1.29,-1.21,0,*4C
1507381472.95,18535,12.88,73356.5,0.55,-1.29,-1.17,0,*4A
1507381474.16,18536,12.81,73356.0,0.55,-1.29,-1.21,0,*4C
1507381475.37,18537,12.81,73354.5,0.55,-1.29,-1.21,0,*4D
1507381476.57,18538,12.88,73356.0,0.55,-1.33,-1.29,0,*41
1507381477.75,18539,12.81,73354.0,0.57,-1.29,-1.17,0,*44
1507381478.96,18540,12.81,73352.3,0.55,-1.29,-1.29,0,*45
1507381480.14,18541,12.88,73356.5,0.57,-1.21,-1.21,0,*46
1507381481.35,18542,12.81,73352.3,0.55,-1.29,-1.21,0,*4F
1507381482.56,18543,12.88,73358.5,0.55,-1.29,-1.29,0,*46
1507381483.76,18544,12.81,73354.5,0.55,-1.29,-1.29,0,*41
1507381484.94,18545,12.81,73354.0,0.57,-1.29,-1.29,0,*42
1507381486.15,18546,12.88,73356.8,0.55,-1.33,-1.29,0,*48
1507381487.33,18547,12.81,73352.3,0.57,-1.33,-1.29,0,*4B
1507381488.53,18548,12.81,73354.0,0.55,-1.33,-1.33,0,*4D
1507381489.74,18549,12.81,73354.0,0.55,-1.29,-1.29,0,*4C
1507381490.94,18550,12.81,73354.5,0.55,-1.29,-1.29,0,*44
1507381492.15,18551,12.81,73354.8,0.55,-1.29,-1.21,0,*4D
1507381493.36,18552,12.81,73352.0,0.55,-1.29,-1.21,0,*4E
1507381494.56,18553,12.81,73354.5,0.53,-1.35,-1.33,0,*47
1507381495.79,18554,12.81,73354.0,0.53,-1.35,-1.35,0,*46
1507381496.97,18555,12.81,73354.8,0.53,-1.33,-1.33,0,*47
1507381498.17,18556,12.88,73356.5,0.55,-1.29,-1.29,0,*42
1507381499.38,18557,12.88,73358.5,0.55,-1.33,-1.33,0,*43
1507381500.58,18558,12.88,73356.8,0.55,-1.29,-1.29,0,*4C
1507381501.79,18559,12.81,73354.8,0.55,-1.29,-1.33,0,*46
1507381502.99,18560,12.81,73354.5,0.55,-1.33,-1.29,0,*4C
1507381504.17,18561,12.81,73356.3,0.57,-1.33,-1.33,0,*44
1507381505.37,18562,12.81,73356.5,0.53,-1.35,-1.33,0,*45
1507381506.57,18563,12.88,73360.8,0.55,-1.29,-1.29,0,*44
1507381507.78,18564,12.81,73352.3,0.55,-1.33,-1.33,0,*43
1507381508.98,18565,12.88,73358.3,0.55,-1.29,-1.29,0,*42
1507381510.19,18566,12.81,73356.5,0.55,-1.33,-1.29,0,*4A
1507381511.4,18567,12.81,73356.0,0.55,-1.29,-1.29,0,*40
1507381512.6,18568,12.81,73358.3,0.55,-1.29,-1.29,0,*4F
1507381513.81,18569,12.81,73356.0,0.55,-1.33,-1.29,0,*45
1507381515.02,18570,12.81,73354.3,0.55,-1.33,-1.29,0,*4D
1507381516.21,18571,12.81,73358.0,0.53,-1.35,-1.33,0,*47
1507381517.41,18572,12.81,73356.5,0.53,-1.35,-1.33,0,*44
1507381518.64,18573,12.81,73358.3,0.53,-1.35,-1.35,0,*43
1507381519.87,18574,12.81,73358.0,0.53,-1.43,-1.43,0,*44
1507381521.1,18575,12.81,73354.8,0.53,-1.47,-1.35,0,*40
1507381522.33,18576,12.81,73356.8,0.53,-1.35,-1.35,0,*46
1507381523.58,18577,12.81,73360.3,0.51,-1.35,-1.35,0,*45
1507381524.81,18578,12.81,73358.5,0.53,-1.35,-1.35,0,*48
1507381525.99,18579,12.81,73358.5,0.53,-1.33,-1.33,0,*49
1507381527.22,18580,12.81,73356.8,0.53,-1.35,-1.35,0,*4F
1507381528.42,18581,12.81,73358.5,0.53,-1.43,-1.33,0,*49
1507381529.59,18582,12.81,73358.3,0.53,-1.33,-1.33,0,*4D
1507381530.79,18583,12.81,73358.5,0.53,-1.35,-1.33,0,*4A
1507381532.02,18584,12.81,73356.3,0.53,-1.35,-1.35,0,*4B
1507381533.25,18585,12.81,73358.5,0.53,-1.35,-1.35,0,*4A
1507381534.45,18586,12.81,73358.5,0.53,-1.35,-1.33,0,*4F
1507381535.64,18587,12.81,73360.3,0.53,-1.43,-1.33,0,*4F
1507381536.85,18588,12.81,73358.8,0.53,-1.33,-1.35,0,*41
1507381538.05,18589,12.88,73360.0,0.53,-1.35,-1.33,0,*40
1507381539.31,18590,12.81,73356.3,0.51,-1.35,-1.35,0,*4C
1507381540.48,18591,12.81,73360.3,0.53,-1.33,-1.33,0,*4F
1507381541.72,18592,12.88,73362.0,0.51,-1.33,-1.35,0,*48
1507381542.92,18593,12.81,73356.8,0.53,-1.35,-1.33,0,*4B
1507381544.15,18594,12.81,73356.5,0.51,-1.35,-1.33,0,*4E
1507381545.37,18595,12.81,73356.3,0.53,-1.35,-1.35,0,*4B
1507381546.6,18596,12.88,73362.3,0.53,-1.35,-1.35,0,*48
1507381547.83,18597,12.81,73360.0,0.51,-1.35,-1.33,0,*4D
1507381549.03,18598,12.81,73358.5,0.53,-1.35,-1.33,0,*40
1507381550.23,18599,12.81,73356.5,0.53,-1.35,-1.33,0,*41
1507381551.43,18600,12.81,73362.5,0.53,-1.33,-1.35,0,*42
1507381552.67,18601,12.81,73358.5,0.51,-1.33,-1.35,0,*41
1507381553.88,18602,12.81,73356.8,0.51,-1.33,-1.33,0,*44
1507381555.05,18603,12.81,73358.0,0.53,-1.33,-1.33,0,*47
1507381556.25,18604,12.81,73356.3,0.53,-1.35,-1.33,0,*46
1507381557.43,18605,12.81,73360.0,0.53,-1.33,-1.33,0,*41
1507381558.64,18606,12.81,73356.3,0.51,-1.33,-1.33,0,*40
1507381559.81,18607,12.81,73360.0,0.53,-1.33,-1.25,0,*44
1507381560.99,18608,12.88,73360.8,0.53,-1.33,-1.25,0,*4B
1507381562.19,18609,12.81,73358.3,0.53,-1.35,-1.25,0,*4C
1507381563.36,18610,12.81,73356.0,0.53,-1.33,-1.25,0,*42
1507381564.57,18611,12.81,73358.5,0.51,-1.33,-1.25,0,*41
1507381565.75,18612,12.81,73358.5,0.53,-1.21,-1.25,0,*43
1507381566.95,18613,12.81,73360.3,0.51,-1.25,-1.25,0,*44
1507381568.16,18614,12.81,73358.0,0.51,-1.21,-1.21,0,*43
1507381569.37,18615,12.81,73356.5,0.51,-1.25,-1.25,0,*42
1507381570.54,18616,12.81,73360.0,0.53,-1.25,-1.25,0,*43
1507381571.71,18617,12.81,73356.8,0.53,-1.25,-1.25,0,*42
1507381572.92,18618,12.81,73360.5,0.51,-1.33,-1.25,0,*48
1507381574.12,18619,12.81,73358.8,0.51,-1.33,-1.25,0,*49
1507381575.3,18620,12.81,73360.0,0.53,-1.25,-1.21,0,*42
1507381576.51,18621,12.88,73362.5,0.51,-1.25,-1.21,0,*41
1507381577.74,18622,12.81,73360.3,0.51,-1.33,-1.13,0,*44
1507381578.92,18623,12.81,73356.5,0.53,-1.25,-1.21,0,*41
1507381580.09,18624,12.81,73356.5,0.53,-1.25,-1.25,0,*42
1507381581.27,18625,12.81,73356.3,0.53,-1.33,-1.33,0,*43
1507381582.44,18626,12.81,73356.3,0.53,-1.25,-1.25,0,*40
1507381583.65,18627,12.81,73358.0,0.51,-1.25,-1.25,0,*43
1507381584.85,18628,12.81,73358.0,0.51,-1.21,-1.25,0,*48
1507381586.05,18629,12.81,73358.0,0.51,-1.25,-1.25,0,*4D
1507381587.23,18630,12.81,73356.3,0.53,-1.25,-1.25,0,*47
1507381588.45,18631,12.81,73354.0,0.51,-1.35,-1.25,0,*45
1507381589.66,18632,12.81,73360.8,0.51,-1.25,-1.25,0,*47
1507381590.85,18633,12.81,73356.0,0.53,-1.35,-1.33,0,*42
1507381592.03,18634,12.81,73358.0,0.53,-1.33,-1.33,0,*43
1507381593.24,18635,12.81,73356.8,0.51,-1.33,-1.33,0,*40
1507381594.45,18636,12.81,73358.0,0.53,-1.33,-1.35,0,*47
1507381595.64,18637,12.81,73358.5,0.53,-1.35,-1.33,0,*46
1507381596.85,18638,12.81,73354.0,0.51,-1.33,-1.33,0,*4D
1507381598.03,18639,12.81,73358.5,0.53,-1.33,-1.33,0,*4E
1507381599.26,18640,12.81,73358.5,0.51,-1.35,-1.33,0,*44
1507381600.46,18641,12.81,73356.8,0.51,-1.33,-1.33,0,*43
1507381601.66,18642,12.81,73358.3,0.53,-1.35,-1.33,0,*44
1507381602.86,18643,12.81,73358.5,0.53,-1.35,-1.33,0,*45
1507381604.06,18644,12.81,73358.3,0.53,-1.35,-1.33,0,*42
1507381605.31,18645,12.81,73358.3,0.51,-1.35,-1.35,0,*47
1507381606.51,18646,12.81,73354.3,0.53,-1.35,-1.33,0,*40
1507381607.77,18647,12.81,73352.3,0.51,-1.43,-1.35,0,*44
1507381609.01,18648,12.81,73354.5,0.51,-1.33,-1.35,0,*4C
1507381610.24,18649,12.81,73358.8,0.51,-1.35,-1.33,0,*4D
1507381611.47,18650,12.81,73358.0,0.53,-1.35,-1.35,0,*41
1507381612.72,18651,12.81,73358.3,0.51,-1.35,-1.35,0,*42
1507381613.96,18652,12.81,73356.8,0.51,-1.33,-1.35,0,*47
1507381615.22,18653,12.81,73358.0,0.51,-1.35,-1.35,0,*40
1507381616.48,18654,12.81,73358.0,0.47,-1.47,-1.39,0,*49
1507381617.7,18655,12.81,73356.5,0.53,-1.35,-1.35,0,*44
1507381618.96,18656,12.81,73354.8,0.51,-1.35,-1.35,0,*45
1507381620.19,18657,12.81,73352.3,0.51,-1.35,-1.33,0,*42
1507381621.42,18658,12.81,73352.8,0.51,-1.35,-1.33,0,*4D
1507381622.65,18659,12.81,73352.3,0.47,-1.51,-1.35,0,*4F
1507381623.9,18660,12.81,73358.3,0.51,-1.35,-1.35,0,*40
1507381625.16,18661,12.81,73354.0,0.51,-1.43,-1.35,0,*40
1507381626.42,18662,12.81,73354.8,0.51,-1.43,-1.35,0,*43
1507381627.68,18663,12.81,73352.5,0.51,-1.43,-1.35,0,*42
1507381628.91,18664,12.81,73352.3,0.53,-1.43,-1.43,0,*46
1507381630.17,18665,12.81,73354.5,0.47,-1.47,-1.39,0,*4B
1507381631.43,18666,12.81,73354.0,0.47,-1.47,-1.39,0,*48
1507381632.69,18667,12.81,73354.3,0.51,-1.43,-1.35,0,*46
1507381633.95,18668,12.81,73352.8,0.51,-1.43,-1.35,0,*49
1507381635.21,18669,12.81,73354.8,0.51,-1.35,-1.35,0,*49
1507381636.47,18670,12.81,73352.3,0.47,-1.47,-1.35,0,*43
1507381637.73,18671,12.81,73354.5,0.51,-1.43,-1.35,0,*41
1507381638.96,18672,12.81,73354.8,0.51,-1.43,-1.33,0,*44
1507381640.22,18673,12.81,73356.5,0.47,-1.39,-1.35,0,*49
1507381641.48,18674,12.81,73352.0,0.47,-1.47,-1.39,0,*4B
1507381642.75,18675,12.81,73352.5,0.47,-1.47,-1.35,0,*46
1507381644.01,18676,12.81,73358.3,0.47,-1.47,-1.35,0,*45
1507381645.27,18677,12.81,73354.0,0.47,-1.39,-1.35,0,*4D
1507381646.53,18678,12.81,73358.0,0.47,-1.39,-1.35,0,*42
1507381647.8,18679,12.81,73354.8,0.47,-1.39,-1.35,0,*43
1507381649.03,18680,12.81,73354.5,0.45,-1.35,-1.35,0,*4B
1507381650.3,18681,12.81,73352.8,0.47,-1.39,-1.35,0,*44
1507381651.53,18682,12.81,73352.3,0.45,-1.35,-1.35,0,*49
1507381652.77,18683,12.81,73352.8,0.47,-1.39,-1.29,0,*4B
1507381653.97,18684,12.81,73354.8,0.45,-1.35,-1.29,0,*42
1507381655.23,18685,12.88,73356.8,0.47,-1.35,-1.35,0,*4C
1507381656.44,18686,12.81,73356.0,0.45,-1.35,-1.29,0,*40
1507381657.67,18687,12.81,73356.8,0.47,-1.35,-1.29,0,*43
1507381658.9,18688,12.81,73352.5,0.47,-1.35,-1.29,0,*4C
1507381660.08,18689,12.81,73354.0,0.45,-1.29,-1.29,0,*42
1507381661.29,18690,12.81,73356.8,0.47,-1.29,-1.29,0,*48
1507381662.5,18691,12.81,73354.3,0.47,-1.29,-1.25,0,*45
1507381663.73,18692,12.81,73352.8,0.47,-1.35,-1.25,0,*4B
1507381664.94,18693,12.81,73354.8,0.47,-1.29,-1.29,0,*4B
1507381666.12,18694,12.81,73354.8,0.45,-1.29,-1.29,0,*4E
1507381667.33,18695,12.81,73354.5,0.51,-1.25,-1.21,0,*4E
1507381668.54,18696,12.81,73352.5,0.51,-1.21,-1.21,0,*49
1507381669.75,18697,12.81,73358.8,0.51,-1.25,-1.21,0,*4C
1507381670.96,18698,12.81,73354.8,0.51,-1.25,-1.21,0,*43
1507381672.17,18699,12.81,73354.8,0.47,-1.25,-1.25,0,*41
1507381673.37,18700,12.81,73352.8,0.47,-1.25,-1.17,0,*41
1507381674.58,18701,12.81,73356.8,0.47,-1.25,-1.17,0,*40
1507381675.81,18702,12.81,73354.0,0.47,-1.25,-1.13,0,*47
1507381677.01,18703,12.81,73354.8,0.47,-1.25,-1.17,0,*42
1507381678.27,18704,12.81,73354.5,0.51,-1.13,-1.13,0,*43
1507381679.5,18705,12.81,73358.5,0.51,-1.21,-1.09,0,*48
1507381680.75,18706,12.81,73354.0,0.51,-1.09,-1.09,0,*41
1507381682.0,18707,12.81,73356.8,0.51,-1.09,-1.09,0,*40
1507381683.25,18708,12.81,73356.3,0.51,-1.13,-1.13,0,*4F
1507381684.51,18709,12.81,73358.0,0.51,-1.13,-1.09,0,*45
1507381685.76,18710,12.81,73356.0,0.47,-1.13,-1.13,0,*41
1507381686.99,18711,12.81,73358.0,0.47,-1.17,-1.13,0,*44
1507381688.22,18712,12.81,73356.8,0.47,-1.17,-1.13,0,*47
1507381689.43,18713,12.81,73356.3,0.47,-1.25,-1.17,0,*43
1507381690.68,18714,12.81,73356.3,0.51,-1.13,-1.09,0,*49
1507381691.92,18715,12.81,73356.8,0.51,-1.21,-1.09,0,*49
1507381693.14,18716,12.81,73356.5,0.51,-1.25,-1.13,0,*45
1507381694.4,18717,12.81,73356.5,0.51,-1.13,-1.13,0,*41
1507381695.63,18718,12.81,73356.3,0.51,-1.21,-1.13,0,*4F
1507381696.81,18719,12.81,73356.0,0.53,-1.25,-1.21,0,*49
1507381698.01,18720,12.81,73356.0,0.51,-1.25,-1.21,0,*41
1507381699.22,18721,12.81,73354.5,0.51,-1.25,-1.21,0,*40
1507381700.43,18722,12.81,73354.3,0.51,-1.25,-1.25,0,*47
1507381701.64,18723,12.81,73356.3,0.51,-1.21,-1.21,0,*46
1507381702.84,18724,12.81,73354.3,0.51,-1.25,-1.25,0,*41
1507381704.02,18725,12.81,73354.0,0.53,-1.33,-1.25,0,*45
1507381705.23,18726,12.81,73356.8,0.51,-1.25,-1.21,0,*47
1507381706.43,18727,12.81,73358.5,0.51,-1.33,-1.25,0,*45
1507381707.64,18728,12.81,73358.5,0.51,-1.33,-1.25,0,*4A
1507381708.85,18729,12.81,73352.8,0.51,-1.33,-1.25,0,*4B